Year,Month,Day,Hour,Minute,Value (Times are PST for temperature in C)
2012,10,04,00,00,10.60
2012,10,04,00,01,10.60
2012,10,04,00,02,10.60
2012,10,04,00,03,10.60
2012,10,04,00,04,10.50
2012,10,04,00,05,10.40
2012,10,04,00,06,10.40
2012,10,04,00,07,10.30
2012,10,04,00,08,10.20
2012,10,04,00,09,10.20
2012,10,04,00,10,10.10
2012,10,04,00,11,10.10
2012,10,04,00,12,10.10
2012,10,04,00,13,10.00
2012,10,04,00,14,9.90
2012,10,04,00,15,9.90
2012,10,04,00,16,9.90
2012,10,04,00,17,9.90
2012,10,04,00,18,9.80
2012,10,04,00,19,9.80
2012,10,04,00,20,9.70
2012,10,04,00,21,9.70
2012,10,04,00,22,9.70
2012,10,04,00,23,9.60
2012,10,04,00,24,9.50
2012,10,04,00,25,9.50
2012,10,04,00,26,9.40
2012,10,04,00,27,9.30
2012,10,04,00,28,9.20
2012,10,04,00,29,9.20
2012,10,04,00,30,9.20
2012,10,04,00,31,9.10
2012,10,04,00,32,9.10
2012,10,04,00,33,9.10
2012,10,04,00,34,9.00
2012,10,04,00,35,9.00
2012,10,04,00,36,9.00
2012,10,04,00,37,9.00
2012,10,04,00,38,9.00
2012,10,04,00,39,8.90
2012,10,04,00,40,8.90
2012,10,04,00,41,8.90
2012,10,04,00,42,8.90
2012,10,04,00,43,8.80
2012,10,04,00,44,8.80
2012,10,04,00,45,8.80
2012,10,04,00,46,8.80
2012,10,04,00,47,8.70
2012,10,04,00,48,8.70
2012,10,04,00,49,8.70
2012,10,04,00,50,8.70
2012,10,04,00,51,8.70
2012,10,04,00,52,8.70
2012,10,04,00,53,8.70
2012,10,04,00,54,8.70
2012,10,04,00,55,8.70
2012,10,04,00,56,8.70
2012,10,04,00,57,8.70
2012,10,04,00,58,8.70
2012,10,04,00,59,8.70
2012,10,04,01,00,8.70
2012,10,04,01,01,8.70
2012,10,04,01,02,8.70
2012,10,04,01,03,8.70
2012,10,04,01,04,8.70
2012,10,04,01,05,8.70
2012,10,04,01,06,8.70
2012,10,04,01,07,8.70
2012,10,04,01,08,8.70
2012,10,04,01,09,8.80
2012,10,04,01,10,8.80
2012,10,04,01,11,8.80
2012,10,04,01,12,8.80
2012,10,04,01,13,8.80
2012,10,04,01,14,8.80
2012,10,04,01,15,8.80
2012,10,04,01,16,8.70
2012,10,04,01,17,8.70
2012,10,04,01,18,8.70
2012,10,04,01,19,8.70
2012,10,04,01,20,8.70
2012,10,04,01,21,8.70
2012,10,04,01,22,8.70
2012,10,04,01,23,8.70
2012,10,04,01,24,8.70
2012,10,04,01,25,8.70
2012,10,04,01,26,8.60
2012,10,04,01,27,8.60
2012,10,04,01,28,8.60
2012,10,04,01,29,8.60
2012,10,04,01,30,8.60
2012,10,04,01,31,8.60
2012,10,04,01,32,8.60
2012,10,04,01,33,8.60
2012,10,04,01,34,8.60
2012,10,04,01,35,8.60
2012,10,04,01,36,8.60
2012,10,04,01,37,8.60
2012,10,04,01,38,8.60
2012,10,04,01,39,8.60
2012,10,04,01,40,8.60
2012,10,04,01,41,8.60
2012,10,04,01,42,8.60
2012,10,04,01,43,8.60
2012,10,04,01,44,8.50
2012,10,04,01,45,8.50
2012,10,04,01,46,8.50
2012,10,04,01,47,8.40
2012,10,04,01,48,8.40
2012,10,04,01,49,8.30
2012,10,04,01,50,8.30
2012,10,04,01,51,8.20
2012,10,04,01,52,8.20
2012,10,04,01,53,8.10
2012,10,04,01,54,8.10
2012,10,04,01,55,8.10
2012,10,04,01,56,8.00
2012,10,04,01,57,8.00
2012,10,04,01,58,8.00
2012,10,04,01,59,7.90
2012,10,04,02,00,7.90
2012,10,04,02,01,7.90
2012,10,04,02,02,7.90
2012,10,04,02,03,7.80
2012,10,04,02,04,7.80
2012,10,04,02,05,7.80
2012,10,04,02,06,7.90
2012,10,04,02,07,7.90
2012,10,04,02,08,7.90
2012,10,04,02,09,7.80
2012,10,04,02,10,7.90
2012,10,04,02,11,7.90
2012,10,04,02,12,7.90
2012,10,04,02,13,7.90
2012,10,04,02,14,7.90
2012,10,04,02,15,7.90
2012,10,04,02,16,7.90
2012,10,04,02,17,7.90
2012,10,04,02,18,7.80
2012,10,04,02,19,7.80
2012,10,04,02,20,7.80
2012,10,04,02,21,7.80
2012,10,04,02,22,7.80
2012,10,04,02,23,7.80
2012,10,04,02,24,7.80
2012,10,04,02,25,7.80
2012,10,04,02,26,7.80
2012,10,04,02,27,7.80
2012,10,04,02,28,7.80
2012,10,04,02,29,7.80
2012,10,04,02,30,7.80
2012,10,04,02,31,7.90
2012,10,04,02,32,7.90
2012,10,04,02,33,7.90
2012,10,04,02,34,7.90
2012,10,04,02,35,7.90
2012,10,04,02,36,7.90
2012,10,04,02,37,7.90
2012,10,04,02,38,7.90
2012,10,04,02,39,7.80
2012,10,04,02,40,7.80
2012,10,04,02,41,7.80
2012,10,04,02,42,7.80
2012,10,04,02,43,7.70
2012,10,04,02,44,7.60
2012,10,04,02,45,7.50
2012,10,04,02,46,7.50
2012,10,04,02,47,7.40
2012,10,04,02,48,7.40
2012,10,04,02,49,7.30
2012,10,04,02,50,7.30
2012,10,04,02,51,7.30
2012,10,04,02,52,7.20
2012,10,04,02,53,7.20
2012,10,04,02,54,7.20
2012,10,04,02,55,7.20
2012,10,04,02,56,7.20
2012,10,04,02,57,7.10
2012,10,04,02,58,7.10
2012,10,04,02,59,7.10
2012,10,04,03,00,7.00
2012,10,04,03,01,6.90
2012,10,04,03,02,6.80
2012,10,04,03,03,6.70
2012,10,04,03,04,6.60
2012,10,04,03,05,6.60
2012,10,04,03,06,6.60
2012,10,04,03,07,6.50
2012,10,04,03,08,6.40
2012,10,04,03,09,6.40
2012,10,04,03,10,6.40
2012,10,04,03,11,6.40
2012,10,04,03,12,6.40
2012,10,04,03,13,6.40
2012,10,04,03,14,6.40
2012,10,04,03,15,6.40
2012,10,04,03,16,6.40
2012,10,04,03,17,6.50
2012,10,04,03,18,6.60
2012,10,04,03,19,6.60
2012,10,04,03,20,6.60
2012,10,04,03,21,6.60
2012,10,04,03,22,6.60
2012,10,04,03,23,6.60
2012,10,04,03,24,6.70
2012,10,04,03,25,6.70
2012,10,04,03,26,6.70
2012,10,04,03,27,6.80
2012,10,04,03,28,6.80
2012,10,04,03,29,6.80
2012,10,04,03,30,6.80
2012,10,04,03,31,6.80
2012,10,04,03,32,6.80
2012,10,04,03,33,6.70
2012,10,04,03,34,6.70
2012,10,04,03,35,6.70
2012,10,04,03,36,6.70
2012,10,04,03,37,6.70
2012,10,04,03,38,6.60
2012,10,04,03,39,6.60
2012,10,04,03,40,6.60
2012,10,04,03,41,6.60
2012,10,04,03,42,6.60
2012,10,04,03,43,6.60
2012,10,04,03,44,6.60
2012,10,04,03,45,6.60
2012,10,04,03,46,6.70
2012,10,04,03,47,6.70
2012,10,04,03,48,6.80
2012,10,04,03,49,6.80
2012,10,04,03,50,6.80
2012,10,04,03,51,6.80
2012,10,04,03,52,6.80
2012,10,04,03,53,6.90
2012,10,04,03,54,6.90
2012,10,04,03,55,6.90
2012,10,04,03,56,7.00
2012,10,04,03,57,7.00
2012,10,04,03,58,7.10
2012,10,04,03,59,7.10
2012,10,04,04,00,7.20
2012,10,04,04,01,7.40
2012,10,04,04,02,7.40
2012,10,04,04,03,7.50
2012,10,04,04,04,7.60
2012,10,04,04,05,7.60
2012,10,04,04,06,7.60
2012,10,04,04,07,7.60
2012,10,04,04,08,7.60
2012,10,04,04,09,7.50
2012,10,04,04,10,7.50
2012,10,04,04,11,7.40
2012,10,04,04,12,7.40
2012,10,04,04,13,7.30
2012,10,04,04,14,7.30
2012,10,04,04,15,7.30
2012,10,04,04,16,7.30
2012,10,04,04,17,7.30
2012,10,04,04,18,7.30
2012,10,04,04,19,7.40
2012,10,04,04,20,7.40
2012,10,04,04,21,7.40
2012,10,04,04,22,7.40
2012,10,04,04,23,7.40
2012,10,04,04,24,7.40
2012,10,04,04,25,7.50
2012,10,04,04,26,7.50
2012,10,04,04,27,7.50
2012,10,04,04,28,7.60
2012,10,04,04,29,7.60
2012,10,04,04,30,7.70
2012,10,04,04,31,7.80
2012,10,04,04,32,7.80
2012,10,04,04,33,7.90
2012,10,04,04,34,8.00
2012,10,04,04,35,8.00
2012,10,04,04,36,8.00
2012,10,04,04,37,8.00
2012,10,04,04,38,8.00
2012,10,04,04,39,8.00
2012,10,04,04,40,8.10
2012,10,04,04,41,8.10
2012,10,04,04,42,8.20
2012,10,04,04,43,8.20
2012,10,04,04,44,8.20
2012,10,04,04,45,8.20
2012,10,04,04,46,8.20
2012,10,04,04,47,8.30
2012,10,04,04,48,8.30
2012,10,04,04,49,8.30
2012,10,04,04,50,8.30
2012,10,04,04,51,8.30
2012,10,04,04,52,8.30
2012,10,04,04,53,8.30
2012,10,04,04,54,8.40
2012,10,04,04,55,8.50
2012,10,04,04,56,8.50
2012,10,04,04,57,8.60
2012,10,04,04,58,8.70
2012,10,04,04,59,8.80
2012,10,04,05,00,8.90
2012,10,04,05,01,8.90
2012,10,04,05,02,8.90
2012,10,04,05,03,9.00
2012,10,04,05,04,9.10
2012,10,04,05,05,9.20
2012,10,04,05,06,9.20
2012,10,04,05,07,9.20
2012,10,04,05,08,9.20
2012,10,04,05,09,9.20
2012,10,04,05,10,9.30
2012,10,04,05,11,9.30
2012,10,04,05,12,9.30
2012,10,04,05,13,9.40
2012,10,04,05,14,9.40
2012,10,04,05,15,9.40
2012,10,04,05,16,9.40
2012,10,04,05,17,9.40
2012,10,04,05,18,9.40
2012,10,04,05,19,9.40
2012,10,04,05,20,9.40
2012,10,04,05,21,9.40
2012,10,04,05,22,9.40
2012,10,04,05,23,9.40
2012,10,04,05,24,9.40
2012,10,04,05,25,9.40
2012,10,04,05,26,9.30
2012,10,04,05,27,9.30
2012,10,04,05,28,9.30
2012,10,04,05,29,9.30
2012,10,04,05,30,9.20
2012,10,04,05,31,9.20
2012,10,04,05,32,9.10
2012,10,04,05,33,9.00
2012,10,04,05,34,9.00
2012,10,04,05,35,8.90
2012,10,04,05,36,8.80
2012,10,04,05,37,8.70
2012,10,04,05,38,8.60
2012,10,04,05,39,8.60
2012,10,04,05,40,8.50
2012,10,04,05,41,8.50
2012,10,04,05,42,8.40
2012,10,04,05,43,8.40
2012,10,04,05,44,8.50
2012,10,04,05,45,8.60
2012,10,04,05,46,8.70
2012,10,04,05,47,8.80
2012,10,04,05,48,8.90
2012,10,04,05,49,9.00
2012,10,04,05,50,9.00
2012,10,04,05,51,9.10
2012,10,04,05,52,9.10
2012,10,04,05,53,9.10
2012,10,04,05,54,9.20
2012,10,04,05,55,9.20
2012,10,04,05,56,9.20
2012,10,04,05,57,9.20
2012,10,04,05,58,9.20
2012,10,04,05,59,9.20
2012,10,04,06,00,9.20
2012,10,04,06,01,9.20
2012,10,04,06,02,9.20
2012,10,04,06,03,9.20
2012,10,04,06,04,9.20
2012,10,04,06,05,9.20
2012,10,04,06,06,9.20
2012,10,04,06,07,9.20
2012,10,04,06,08,9.20
2012,10,04,06,09,9.20
2012,10,04,06,10,9.10
2012,10,04,06,11,9.00
2012,10,04,06,12,9.00
2012,10,04,06,13,8.90
2012,10,04,06,14,8.90
2012,10,04,06,15,8.90
2012,10,04,06,16,8.90
2012,10,04,06,17,8.80
2012,10,04,06,18,8.80
2012,10,04,06,19,8.80
2012,10,04,06,20,8.70
2012,10,04,06,21,8.70
2012,10,04,06,22,8.70
2012,10,04,06,23,8.70
2012,10,04,06,24,8.60
2012,10,04,06,25,8.50
2012,10,04,06,26,8.40
2012,10,04,06,27,8.30
2012,10,04,06,28,8.30
2012,10,04,06,29,8.20
2012,10,04,06,30,8.20
2012,10,04,06,31,8.30
2012,10,04,06,32,8.30
2012,10,04,06,33,8.40
2012,10,04,06,34,8.50
2012,10,04,06,35,8.60
2012,10,04,06,36,8.70
2012,10,04,06,37,8.70
2012,10,04,06,38,8.70
2012,10,04,06,39,8.70
2012,10,04,06,40,8.70
2012,10,04,06,41,8.70
2012,10,04,06,42,8.70
2012,10,04,06,43,8.70
2012,10,04,06,44,8.70
2012,10,04,06,45,8.70
2012,10,04,06,46,8.70
2012,10,04,06,47,8.60
2012,10,04,06,48,8.70
2012,10,04,06,49,8.70
2012,10,04,06,50,8.60
2012,10,04,06,51,8.60
2012,10,04,06,52,8.60
2012,10,04,06,53,8.60
2012,10,04,06,54,8.60
2012,10,04,06,55,8.60
2012,10,04,06,56,8.60
2012,10,04,06,57,8.60
2012,10,04,06,58,8.60
2012,10,04,06,59,8.50
2012,10,04,07,00,8.50
2012,10,04,07,01,8.50
2012,10,04,07,02,8.50
2012,10,04,07,03,8.60
2012,10,04,07,04,8.60
2012,10,04,07,05,8.60
2012,10,04,07,06,8.60
2012,10,04,07,07,8.70
2012,10,04,07,08,8.80
2012,10,04,07,09,8.90
2012,10,04,07,10,9.00
2012,10,04,07,11,9.10
2012,10,04,07,12,9.10
2012,10,04,07,13,9.20
2012,10,04,07,14,9.20
2012,10,04,07,15,9.20
2012,10,04,07,16,9.20
2012,10,04,07,17,9.20
2012,10,04,07,18,9.30
2012,10,04,07,19,9.30
2012,10,04,07,20,9.30
2012,10,04,07,21,9.30
2012,10,04,07,22,9.30
2012,10,04,07,23,9.30
2012,10,04,07,24,9.30
2012,10,04,07,25,9.30
2012,10,04,07,26,9.20
2012,10,04,07,27,9.20
2012,10,04,07,28,9.20
2012,10,04,07,29,9.10
2012,10,04,07,30,9.00
2012,10,04,07,31,8.90
2012,10,04,07,32,8.90
2012,10,04,07,33,8.80
2012,10,04,07,34,8.80
2012,10,04,07,35,8.80
2012,10,04,07,36,8.80
2012,10,04,07,37,8.90
2012,10,04,07,38,9.00
2012,10,04,07,39,9.00
2012,10,04,07,40,9.10
2012,10,04,07,41,9.10
2012,10,04,07,42,9.10
2012,10,04,07,43,9.20
2012,10,04,07,44,9.20
2012,10,04,07,45,9.20
2012,10,04,07,46,9.20
2012,10,04,07,47,9.20
2012,10,04,07,48,9.20
2012,10,04,07,49,9.10
2012,10,04,07,50,9.10
2012,10,04,07,51,9.00
2012,10,04,07,52,9.00
2012,10,04,07,53,8.90
2012,10,04,07,54,8.90
2012,10,04,07,55,8.80
2012,10,04,07,56,8.70
2012,10,04,07,57,8.70
2012,10,04,07,58,8.60
2012,10,04,07,59,8.60
2012,10,04,08,00,8.60
2012,10,04,08,01,8.60
2012,10,04,08,02,8.60
2012,10,04,08,03,8.70
2012,10,04,08,04,8.80
2012,10,04,08,05,8.90
2012,10,04,08,06,9.00
2012,10,04,08,07,9.00
2012,10,04,08,08,9.10
2012,10,04,08,09,9.20
2012,10,04,08,10,9.20
2012,10,04,08,11,9.30
2012,10,04,08,12,9.40
2012,10,04,08,13,9.40
2012,10,04,08,14,9.50
2012,10,04,08,15,9.50
2012,10,04,08,16,9.50
2012,10,04,08,17,9.50
2012,10,04,08,18,9.50
2012,10,04,08,19,9.50
2012,10,04,08,20,9.50
2012,10,04,08,21,9.50
2012,10,04,08,22,9.50
2012,10,04,08,23,9.50
2012,10,04,08,24,9.60
2012,10,04,08,25,9.60
2012,10,04,08,26,9.60
2012,10,04,08,27,9.60
2012,10,04,08,28,9.60
2012,10,04,08,29,9.60
2012,10,04,08,30,9.60
2012,10,04,08,31,9.60
2012,10,04,08,32,9.60
2012,10,04,08,33,9.70
2012,10,04,08,34,9.60
2012,10,04,08,35,9.60
2012,10,04,08,36,9.60
2012,10,04,08,37,9.60
2012,10,04,08,38,9.60
2012,10,04,08,39,9.70
2012,10,04,08,40,9.70
2012,10,04,08,41,9.80
2012,10,04,08,42,9.80
2012,10,04,08,43,9.90
2012,10,04,08,44,9.90
2012,10,04,08,45,10.00
2012,10,04,08,46,10.10
2012,10,04,08,47,10.20
2012,10,04,08,48,10.20
2012,10,04,08,49,10.30
2012,10,04,08,50,10.40
2012,10,04,08,51,10.40
2012,10,04,08,52,10.50
2012,10,04,08,53,10.60
2012,10,04,08,54,10.60
2012,10,04,08,55,10.70
2012,10,04,08,56,10.70
2012,10,04,08,57,10.80
2012,10,04,08,58,10.80
2012,10,04,08,59,10.90
2012,10,04,09,00,10.90
2012,10,04,09,01,10.90
2012,10,04,09,02,10.90
2012,10,04,09,03,11.00
2012,10,04,09,04,11.10
2012,10,04,09,05,11.10
2012,10,04,09,06,11.10
2012,10,04,09,07,11.10
2012,10,04,09,08,11.10
2012,10,04,09,09,11.10
2012,10,04,09,10,11.20
2012,10,04,09,11,11.20
2012,10,04,09,12,11.30
2012,10,04,09,13,11.40
2012,10,04,09,14,11.40
2012,10,04,09,15,11.50
2012,10,04,09,16,11.60
2012,10,04,09,17,11.60
2012,10,04,09,18,11.60
2012,10,04,09,19,11.60
2012,10,04,09,20,11.60
2012,10,04,09,21,11.60
2012,10,04,09,22,11.70
2012,10,04,09,23,11.80
2012,10,04,09,24,11.80
2012,10,04,09,25,11.80
2012,10,04,09,26,11.80
2012,10,04,09,27,11.90
2012,10,04,09,28,11.90
2012,10,04,09,29,11.90
2012,10,04,09,30,11.90
2012,10,04,09,31,12.00
2012,10,04,09,32,12.00
2012,10,04,09,33,12.10
2012,10,04,09,34,12.20
2012,10,04,09,35,12.30
2012,10,04,09,36,12.30
2012,10,04,09,37,12.30
2012,10,04,09,38,12.30
2012,10,04,09,39,12.40
2012,10,04,09,40,12.40
2012,10,04,09,41,12.40
2012,10,04,09,42,12.50
2012,10,04,09,43,12.50
2012,10,04,09,44,12.50
2012,10,04,09,45,12.60
2012,10,04,09,46,12.60
2012,10,04,09,47,12.60
2012,10,04,09,48,12.60
2012,10,04,09,49,12.60
2012,10,04,09,50,12.70
2012,10,04,09,51,12.70
2012,10,04,09,52,12.80
2012,10,04,09,53,12.80
2012,10,04,09,54,12.80
2012,10,04,09,55,12.90
2012,10,04,09,56,12.90
2012,10,04,09,57,13.00
2012,10,04,09,58,13.10
2012,10,04,09,59,13.10
2012,10,04,10,00,13.10
2012,10,04,10,01,13.20
2012,10,04,10,02,13.20
2012,10,04,10,03,13.30
2012,10,04,10,04,13.30
2012,10,04,10,05,13.30
2012,10,04,10,06,13.30
2012,10,04,10,07,13.40
2012,10,04,10,08,13.40
2012,10,04,10,09,13.40
2012,10,04,10,10,13.50
2012,10,04,10,11,13.40
2012,10,04,10,12,13.40
2012,10,04,10,13,13.40
2012,10,04,10,14,13.30
2012,10,04,10,15,13.30
2012,10,04,10,16,13.30
2012,10,04,10,17,13.30
2012,10,04,10,18,13.30
2012,10,04,10,19,13.30
2012,10,04,10,20,13.40
2012,10,04,10,21,13.40
2012,10,04,10,22,13.40
2012,10,04,10,23,13.50
2012,10,04,10,24,13.60
2012,10,04,10,25,13.60
2012,10,04,10,26,13.60
2012,10,04,10,27,13.70
2012,10,04,10,28,13.70
2012,10,04,10,29,13.70
2012,10,04,10,30,13.70
2012,10,04,10,31,13.70
2012,10,04,10,32,13.80
2012,10,04,10,33,13.80
2012,10,04,10,34,13.80
2012,10,04,10,35,13.80
2012,10,04,10,36,13.70
2012,10,04,10,37,13.70
2012,10,04,10,38,13.70
2012,10,04,10,39,13.70
2012,10,04,10,40,13.70
2012,10,04,10,41,13.70
2012,10,04,10,42,13.70
2012,10,04,10,43,13.70
2012,10,04,10,44,13.70
2012,10,04,10,45,13.70
2012,10,04,10,46,13.70
2012,10,04,10,47,13.70
2012,10,04,10,48,13.60
2012,10,04,10,49,13.60
2012,10,04,10,50,13.70
2012,10,04,10,51,13.70
2012,10,04,10,52,13.70
2012,10,04,10,53,13.70
2012,10,04,10,54,13.70
2012,10,04,10,55,13.80
2012,10,04,10,56,13.80
2012,10,04,10,57,13.90
2012,10,04,10,58,14.00
2012,10,04,10,59,14.00
2012,10,04,11,00,14.00
2012,10,04,11,01,14.00
2012,10,04,11,02,14.00
2012,10,04,11,03,14.00
2012,10,04,11,04,14.00
2012,10,04,11,05,14.10
2012,10,04,11,06,14.10
2012,10,04,11,07,14.20
2012,10,04,11,08,14.20
2012,10,04,11,09,14.20
2012,10,04,11,10,14.20
2012,10,04,11,11,14.20
2012,10,04,11,12,14.30
2012,10,04,11,13,14.30
2012,10,04,11,14,14.40
2012,10,04,11,15,14.30
2012,10,04,11,16,14.20
2012,10,04,11,17,14.20
2012,10,04,11,18,14.30
2012,10,04,11,19,14.30
2012,10,04,11,20,14.30
2012,10,04,11,21,14.30
2012,10,04,11,22,14.40
2012,10,04,11,23,14.40
2012,10,04,11,24,14.40
2012,10,04,11,25,14.40
2012,10,04,11,26,14.50
2012,10,04,11,27,14.50
2012,10,04,11,28,14.60
2012,10,04,11,29,14.60
2012,10,04,11,30,14.60
2012,10,04,11,31,14.60
2012,10,04,11,32,14.60
2012,10,04,11,33,14.60
2012,10,04,11,34,14.60
2012,10,04,11,35,14.60
2012,10,04,11,36,14.70
2012,10,04,11,37,14.80
2012,10,04,11,38,14.80
2012,10,04,11,39,14.80
2012,10,04,11,40,14.80
2012,10,04,11,41,14.90
2012,10,04,11,42,14.90
2012,10,04,11,43,14.90
2012,10,04,11,44,15.00
2012,10,04,11,45,15.10
2012,10,04,11,46,15.10
2012,10,04,11,47,15.10
2012,10,04,11,48,15.00
2012,10,04,11,49,14.90
2012,10,04,11,50,14.80
2012,10,04,11,51,14.80
2012,10,04,11,52,14.80
2012,10,04,11,53,14.90
2012,10,04,11,54,14.90
2012,10,04,11,55,15.00
2012,10,04,11,56,15.00
2012,10,04,11,57,15.00
2012,10,04,11,58,15.00
2012,10,04,11,59,15.00
2012,10,04,12,00,14.90
2012,10,04,12,01,14.90
2012,10,04,12,02,15.00
2012,10,04,12,03,15.00
2012,10,04,12,04,15.00
2012,10,04,12,05,15.10
2012,10,04,12,06,15.10
2012,10,04,12,07,15.20
2012,10,04,12,08,15.10
2012,10,04,12,09,15.10
2012,10,04,12,10,15.10
2012,10,04,12,11,15.10
2012,10,04,12,12,15.10
2012,10,04,12,13,15.10
2012,10,04,12,14,15.20
2012,10,04,12,15,15.30
2012,10,04,12,16,15.30
2012,10,04,12,17,15.30
2012,10,04,12,18,15.30
2012,10,04,12,19,15.40
2012,10,04,12,20,15.50
2012,10,04,12,21,15.50
2012,10,04,12,22,15.60
2012,10,04,12,23,15.60
2012,10,04,12,24,15.60
2012,10,04,12,25,15.60
2012,10,04,12,26,15.70
2012,10,04,12,27,15.70
2012,10,04,12,28,15.80
2012,10,04,12,29,15.80
2012,10,04,12,30,15.80
2012,10,04,12,31,15.80
2012,10,04,12,32,15.80
2012,10,04,12,33,15.90
2012,10,04,12,34,15.90
2012,10,04,12,35,15.90
2012,10,04,12,36,15.90
2012,10,04,12,37,16.00
2012,10,04,12,38,16.10
2012,10,04,12,39,16.10
2012,10,04,12,40,16.20
2012,10,04,12,41,16.30
2012,10,04,12,42,16.20
2012,10,04,12,43,16.10
2012,10,04,12,44,15.90
2012,10,04,12,45,15.90
2012,10,04,12,46,15.90
2012,10,04,12,47,15.90
2012,10,04,12,48,16.00
2012,10,04,12,49,16.10
2012,10,04,12,50,16.10
2012,10,04,12,51,16.10
2012,10,04,12,52,16.20
2012,10,04,12,53,16.20
2012,10,04,12,54,16.30
2012,10,04,12,55,16.30
2012,10,04,12,56,16.30
2012,10,04,12,57,16.30
2012,10,04,12,58,16.20
2012,10,04,12,59,16.30
2012,10,04,13,00,16.30
2012,10,04,13,01,16.30
2012,10,04,13,02,16.30
2012,10,04,13,03,16.30
2012,10,04,13,04,16.20
2012,10,04,13,05,16.20
2012,10,04,13,06,16.10
2012,10,04,13,07,16.10
2012,10,04,13,08,16.10
2012,10,04,13,09,16.10
2012,10,04,13,10,16.20
2012,10,04,13,11,16.30
2012,10,04,13,12,16.40
2012,10,04,13,13,16.40
2012,10,04,13,14,16.40
2012,10,04,13,15,16.40
2012,10,04,13,16,16.50
2012,10,04,13,17,16.60
2012,10,04,13,18,16.70
2012,10,04,13,19,16.70
2012,10,04,13,20,16.70
2012,10,04,13,21,16.60
2012,10,04,13,22,16.50
2012,10,04,13,23,16.40
2012,10,04,13,24,16.40
2012,10,04,13,25,16.30
2012,10,04,13,26,16.20
2012,10,04,13,27,16.10
2012,10,04,13,28,16.10
2012,10,04,13,29,16.20
2012,10,04,13,30,16.20
2012,10,04,13,31,16.10
2012,10,04,13,32,16.10
2012,10,04,13,33,16.00
2012,10,04,13,34,15.90
2012,10,04,13,35,15.80
2012,10,04,13,36,15.80
2012,10,04,13,37,15.80
2012,10,04,13,38,15.90
2012,10,04,13,39,15.90
2012,10,04,13,40,15.90
2012,10,04,13,41,16.10
2012,10,04,13,42,16.10
2012,10,04,13,43,16.20
2012,10,04,13,44,16.20
2012,10,04,13,45,16.30
2012,10,04,13,46,16.40
2012,10,04,13,47,16.40
2012,10,04,13,48,16.40
2012,10,04,13,49,16.30
2012,10,04,13,50,16.30
2012,10,04,13,51,16.30
2012,10,04,13,52,16.20
2012,10,04,13,53,16.20
2012,10,04,13,54,16.30
2012,10,04,13,55,16.30
2012,10,04,13,56,16.20
2012,10,04,13,57,16.10
2012,10,04,13,58,16.10
2012,10,04,13,59,16.10
2012,10,04,14,00,16.10
2012,10,04,14,01,16.10
2012,10,04,14,02,16.10
2012,10,04,14,03,16.10
2012,10,04,14,04,16.20
2012,10,04,14,05,16.30
2012,10,04,14,06,16.40
2012,10,04,14,07,16.40
2012,10,04,14,08,16.50
2012,10,04,14,09,16.60
2012,10,04,14,10,16.70
2012,10,04,14,11,16.80
2012,10,04,14,12,16.90
2012,10,04,14,13,16.90
2012,10,04,14,14,17.00
2012,10,04,14,15,17.00
2012,10,04,14,16,17.10
2012,10,04,14,17,17.20
2012,10,04,14,18,17.20
2012,10,04,14,19,17.20
2012,10,04,14,20,17.20
2012,10,04,14,21,17.30
2012,10,04,14,22,17.30
2012,10,04,14,23,17.40
2012,10,04,14,24,17.50
2012,10,04,14,25,17.50
2012,10,04,14,26,17.50
2012,10,04,14,27,17.50
2012,10,04,14,28,17.50
2012,10,04,14,29,17.40
2012,10,04,14,30,17.40
2012,10,04,14,31,17.40
2012,10,04,14,32,17.40
2012,10,04,14,33,17.40
2012,10,04,14,34,17.40
2012,10,04,14,35,17.40
2012,10,04,14,36,17.40
2012,10,04,14,37,17.40
2012,10,04,14,38,17.30
2012,10,04,14,39,17.10
2012,10,04,14,40,17.00
2012,10,04,14,41,17.00
2012,10,04,14,42,17.10
2012,10,04,14,43,17.20
2012,10,04,14,44,17.30
2012,10,04,14,45,17.30
2012,10,04,14,46,17.30
2012,10,04,14,47,17.30
2012,10,04,14,48,17.30
2012,10,04,14,49,17.30
2012,10,04,14,50,17.30
2012,10,04,14,51,17.20
2012,10,04,14,52,17.10
2012,10,04,14,53,17.10
2012,10,04,14,54,17.00
2012,10,04,14,55,17.00
2012,10,04,14,56,17.00
2012,10,04,14,57,17.00
2012,10,04,14,58,17.00
2012,10,04,14,59,17.00
2012,10,04,15,00,17.10
2012,10,04,15,01,17.10
2012,10,04,15,02,17.30
2012,10,04,15,03,17.30
2012,10,04,15,04,17.30
2012,10,04,15,05,17.30
2012,10,04,15,06,17.30
2012,10,04,15,07,17.40
2012,10,04,15,08,17.40
2012,10,04,15,09,17.50
2012,10,04,15,10,17.50
2012,10,04,15,11,17.50
2012,10,04,15,12,17.60
2012,10,04,15,13,17.70
2012,10,04,15,14,17.70
2012,10,04,15,15,17.80
2012,10,04,15,16,17.80
2012,10,04,15,17,17.90
2012,10,04,15,18,17.90
2012,10,04,15,19,17.90
2012,10,04,15,20,17.90
2012,10,04,15,21,17.90
2012,10,04,15,22,17.90
2012,10,04,15,23,17.90
2012,10,04,15,24,17.90
2012,10,04,15,25,17.90
2012,10,04,15,26,17.80
2012,10,04,15,27,17.70
2012,10,04,15,28,17.70
2012,10,04,15,29,17.60
2012,10,04,15,30,17.60
2012,10,04,15,31,17.50
2012,10,04,15,32,17.50
2012,10,04,15,33,17.40
2012,10,04,15,34,17.40
2012,10,04,15,35,17.40
2012,10,04,15,36,17.50
2012,10,04,15,37,17.50
2012,10,04,15,38,17.50
2012,10,04,15,39,17.50
2012,10,04,15,40,17.50
2012,10,04,15,41,17.50
2012,10,04,15,42,17.50
2012,10,04,15,43,17.50
2012,10,04,15,44,17.50
2012,10,04,15,45,17.50
2012,10,04,15,46,17.50
2012,10,04,15,47,17.60
2012,10,04,15,48,17.60
2012,10,04,15,49,17.60
2012,10,04,15,50,17.60
2012,10,04,15,51,17.60
2012,10,04,15,52,17.60
2012,10,04,15,53,17.60
2012,10,04,15,54,17.70
2012,10,04,15,55,17.70
2012,10,04,15,56,17.70
2012,10,04,15,57,17.70
2012,10,04,15,58,17.70
2012,10,04,15,59,17.60
2012,10,04,16,00,17.50
2012,10,04,16,01,17.50
2012,10,04,16,02,17.40
2012,10,04,16,03,17.40
2012,10,04,16,04,17.40
2012,10,04,16,05,17.40
2012,10,04,16,06,17.50
2012,10,04,16,07,17.50
2012,10,04,16,08,17.50
2012,10,04,16,09,17.50
2012,10,04,16,10,17.50
2012,10,04,16,11,17.40
2012,10,04,16,12,17.40
2012,10,04,16,13,17.50
2012,10,04,16,14,17.50
2012,10,04,16,15,17.50
2012,10,04,16,16,17.50
2012,10,04,16,17,17.40
2012,10,04,16,18,17.50
2012,10,04,16,19,17.50
2012,10,04,16,20,17.50
2012,10,04,16,21,17.60
2012,10,04,16,22,17.60
2012,10,04,16,23,17.60
2012,10,04,16,24,17.60
2012,10,04,16,25,17.60
2012,10,04,16,26,17.40
2012,10,04,16,27,17.20
2012,10,04,16,28,16.90
2012,10,04,16,29,16.80
2012,10,04,16,30,16.60
2012,10,04,16,31,16.40
2012,10,04,16,32,16.30
2012,10,04,16,33,16.20
2012,10,04,16,34,16.00
2012,10,04,16,35,15.90
2012,10,04,16,36,15.70
2012,10,04,16,37,15.70
2012,10,04,16,38,15.70
2012,10,04,16,39,15.60
2012,10,04,16,40,15.50
2012,10,04,16,41,15.50
2012,10,04,16,42,15.40
2012,10,04,16,43,15.30
2012,10,04,16,44,15.20
2012,10,04,16,45,15.10
2012,10,04,16,46,15.00
2012,10,04,16,47,15.00
2012,10,04,16,48,14.90
2012,10,04,16,49,14.90
2012,10,04,16,50,14.80
2012,10,04,16,51,14.80
2012,10,04,16,52,14.70
2012,10,04,16,53,14.70
2012,10,04,16,54,14.70
2012,10,04,16,55,14.60
2012,10,04,16,56,14.60
2012,10,04,16,57,14.60
2012,10,04,16,58,14.60
2012,10,04,16,59,14.50
2012,10,04,17,00,14.40
2012,10,04,17,01,14.30
2012,10,04,17,02,14.20
2012,10,04,17,03,14.20
2012,10,04,17,04,14.20
2012,10,04,17,05,14.20
2012,10,04,17,06,14.20
2012,10,04,17,07,14.20
2012,10,04,17,08,14.20
2012,10,04,17,09,14.30
2012,10,04,17,10,14.30
2012,10,04,17,11,14.30
2012,10,04,17,12,14.30
2012,10,04,17,13,14.20
2012,10,04,17,14,14.20
2012,10,04,17,15,14.10
2012,10,04,17,16,14.00
2012,10,04,17,17,13.90
2012,10,04,17,18,13.90
2012,10,04,17,19,13.80
2012,10,04,17,20,13.90
2012,10,04,17,21,13.90
2012,10,04,17,22,13.90
2012,10,04,17,23,13.90
2012,10,04,17,24,14.00
2012,10,04,17,25,14.00
2012,10,04,17,26,14.10
2012,10,04,17,27,14.10
2012,10,04,17,28,14.10
2012,10,04,17,29,14.20
2012,10,04,17,30,14.20
2012,10,04,17,31,14.20
2012,10,04,17,32,14.20
2012,10,04,17,33,14.20
2012,10,04,17,34,14.20
2012,10,04,17,35,14.20
2012,10,04,17,36,14.20
2012,10,04,17,37,14.20
2012,10,04,17,38,14.20
2012,10,04,17,39,14.10
2012,10,04,17,40,14.00
2012,10,04,17,41,13.80